DELTA 1 DEB

Satellite information

Favourite Embed

Satellite Type and Status

DEBRISIN ORBIT

Key statistics

Satellite DELTA 1 DEB at a glance.

Uptime

17353

Days in orbit

Revolutions

≈ 14.3

Per day

Orbit

SSO

Sun Synchronous Orbit

Inclination

98.8

Latest

Satellite identification and parameters

Extended collection of information and parameters for DELTA 1 DEB.

Object identification

Identified? True

Debris? True

Object name: DELTA 1 DEB

International designator: 1978-026EB

Object number (NORAD): 12283

Object ID (CCSDS): 12283

Country: UNITED STATES OF AMERICA (US)

Current information (Y/N): Y

RCS size: SMALL

Orbital parameters

Period: 100.903 minutes

Inclination: 98.8382 deg

SMA: 7179.553 km

Apoapsis: 866.446 km

Periapsis: 736.39 km

RAAN: 257.6312 deg

Eccentricy: 0.00905736

Argument of periapsis: 345.2908 deg

Mean anomaly: 176.7379 deg

Mean motion: 14.27107318 rev/day

Mean motion (dot): 0.00000448 rev/day2

B* drag term: 0.00019417475 1/REarth

Two-line elements (TLE)

Creation date: Sept. 7, 2025, 3:09 a.m.

Reference frame: TEME

Reference center: EARTH

Epoch: Sept. 6, 2025, 11:12 a.m. UTC

TLE line 0: 0 DELTA 1 DEB

TLE line 1: 1 12283U 78026EB 25249.46700681 .00000448 00000-0 19417-3 0 9994

TLE line 2: 2 12283 98.8382 257.6312 0090574 345.2908 176.7379 14.27107318286097

Live tracking on map

Real-time ground track for satellite DELTA 1 DEB.

In-orbit conjunctions

A list of the most updated potential collisions computed for object DELTA 1 DEB.

Target Orbit TCA Probability of collision Miss distance Type
CZ-2C DEB SSO 2024-10-06 00:44:17 0.0008207712 20.0 (m) DEBRIS

Associated space launch

Earth observation satellite

DELTA 1 DEB was lifted into orbit during the mission ‘Delta 2910 | Landsat 3’, on board a Delta 2910 space rocket.

The launch took place on March 5, 1978, 5:54 p.m. from Space Launch Complex 2W.

For more information about the launch, click the button.

Launch to space Delta 2910 | Landsat 3
Delta 2910 | Landsat 3

Agency: N/A

Status: Launch Successful

Launch date: March 5, 1978, 5:54 p.m. UTC

Rocket: Delta 2910

Launch pad: Space Launch Complex 2W

Location: Vandenberg SFB, CA, USA

...

Latest news about this satellite

There are no fresh news available about this satellite. Check back as we update our databases every day.


Newsletter sign-up

Weekly statistics, charts and insights to help you stay on top of the space industry.